Regional Weather Roundup
Issued by NWS

Home | Current Version | Previous Version | Text Only | Print | Product List | Glossary On
Versions: 1 2 3 4 5 6 7 8 9 10 11 12 13 14 15 16 17 18 19 20 21 22 23 24 25 26 27 28 29 30 31 32 33 34 35 36 37 38 39 40 41 42 43 44 45 46 47 48 49 50
743
ASUS43 KMKX 301021
RWRWI

WISCONSIN REGIONAL WEATHER ROUNDUP
NATIONAL WEATHER SERVICE MILWAUKEE/SULLIVAN WI
500 AM CDT FRI SEP 30 2016

NOTE: "FAIR" INDICATES FEW OR NO CLOUDS BELOW 12,000 FEET WITH NO
SIGNIFICANT WEATHER AND/OR OBSTRUCTIONS TO VISIBILITY.

WIZ001-002-006>008-014>016-023>028-301100-
NORTHWEST WISCONSIN

CITY           SKY/WX    TMP DP  RH WIND       PRES   REMARKS
SUPERIOR ARPT  CLOUDY    53  51  94 E3        30.44S
ASHLAND        CLOUDY    54  52  93 E13       30.45S
HAYWARD        CLOUDY    50  48  93 NE7       30.43S
SIREN          CLOUDY    52  50  94 NE3       30.42R
CUMBERLAND     CLEAR     46  45  93 NE5       30.40S
RICE LAKE      PTCLDY    44  43  97 CALM      30.41F FOG
CHETEK         NOT AVBL
LADYSMITH      MOCLDY    47  47  97 N5        30.42S FOG
EAU CLAIRE     CLEAR     50  49  96 NE3       30.37F
MENOMONIE      CLEAR     49  48  97 N3        30.39S
NEW RICHMOND   CLEAR     49  49  99 NE6       30.39S
OSCEOLA        CLEAR     47  47 100 CALM      30.42S FOG
$$

WIZ003>005-009-010-017-018-301100-
NORTH CENTRAL WISCONSIN

CITY           SKY/WX    TMP DP  RH WIND       PRES   REMARKS
MANITOWISH WTR NOT AVBL
ARBOR VITAE    CLEAR     49  48  96 CALM      30.41S
WOODRUFF       CLEAR     49  48  96 CALM      30.41S
RHINELANDER    CLEAR     46  46 100 N3        30.40S
EAGLE RIVER    CLEAR     43  43 100 CALM      30.41R
LAND O LAKES   CLOUDY    47  47 100 NE3       30.43S FOG
PHILLIPS       FOG       47  47 100 CALM      30.40F VSB 3/4
TOMAHAWK       CLEAR     43  42  97 CALM      30.40S FOG
MEDFORD        CLEAR     46  46 100 NE3       30.37S
MERRILL        CLEAR     47  47 100 N5        30.38S
$$

WIZ029-030-035-036-043>047-301100-
CENTRAL WISCONSIN

CITY           SKY/WX    TMP DP  RH WIND       PRES   REMARKS
WAUSAU         CLEAR     50  47  89 N7        30.33F
MOSINEE        CLEAR     50  48  93 N8        30.34S
MARSHFIELD     CLEAR     52  47  83 NE10      30.33S
STEVENS POINT  CLEAR     48  48  97 NE5       30.34R
WAUPACA        CLOUDY    57  53  88 N6        30.32R
WAUTOMA        CLOUDY    56  52  86 NE8       30.31R
WISC RAPIDS    CLEAR     52  50  93 NE10      30.33F
CAMP DOUGLAS   CLEAR     47  46  98 W5        30.31S
$$

WIZ011>013-019>022-031-037>040-048>050-301100-
NORTHEAST WISCONSIN

CITY           SKY/WX    TMP DP  RH WIND       PRES   REMARKS
ANTIGO         CLEAR     47  47  99 CALM      30.36S
SHAWANO        CLOUDY    57  53  84 NE9       30.33S
OCONTO         NOT AVBL
STURGEON BAY   CLOUDY    60  57  89 N7        30.31F
GREEN BAY      CLOUDY    57  56  96 N10       30.30S
MANITOWOC      CLOUDY    61  55  81 MISG      30.28S
APPLETON       CLOUDY    55  54  94 NE12      30.29R
CLINTONVILLE   CLOUDY    54  50  87 NE9       30.31F
OSHKOSH        CLOUDY    58  56  93 N14       30.28R
$$

WIZ032>034-041-042-053>061-301100-
SOUTHWEST WISCONSIN

CITY           SKY/WX    TMP DP  RH WIND       PRES   REMARKS
LA CROSSE      CLEAR     54  51  90 N7        30.32S
SPARTA         PTCLDY    48  48  99 N3        30.32F
VIROQUA        PTCLDY    51  50  98 N5        30.30F
BOSCOBEL       CLOUDY    60  54  80 NE5       30.28R
PRAIRIE DU CHI CLOUDY    56  51  83 N3        30.27S
PLATTEVILLE    CLOUDY    57  55  95 N7        30.26S
$$

WIZ056-057-062-063-064-067-068-301100-
SOUTH CENTRAL WISCONSIN

CITY           SKY/WX    TMP DP  RH WIND       PRES   REMARKS
REEDSBURG      NOT AVBL
BARABOO/DELLS  CLOUDY    56  53  90 NE7       30.29R
LONE ROCK      CLOUDY    59  53  80 N6        30.28S
MINERAL POINT  CLOUDY    57  55  94 N8        30.26S
MADISON        CLOUDY    57  54  89 N10       30.25S
MIDDLETON      CLOUDY    58  57  96 NE10      30.26S
WATERTOWN      CLOUDY    59  58  96 N9        30.23F
MONROE         CLOUDY    57  54  88 N12G18    30.23S
JANESVILLE     CLOUDY    61  57  88 N6        30.21S
$$

WIZ051-052-058>065-066-070>072-301100-
SOUTHEAST WISCONSIN

CITY           SKY/WX    TMP DP  RH WIND       PRES   REMARKS
MILWAUKEE      CLOUDY    61  56  83 NE14G22   30.21F
WAUKESHA       LGT RAIN  57  54  88 NE9G18    30.23S
MILWAUKEE/TIMM CLOUDY    59  52  77 NE12G17   30.23S
RACINE         CLOUDY    61  57  87 MISG      30.21F
BURLINGTON     DRIZZLE   56  56  97 N7        30.20F
KENOSHA        CLOUDY    61  58  90 NE10      30.19F
FOND DU LAC    CLOUDY    59  57  93 NE13      30.27S
SHEBOYGAN      CLOUDY    60  55  83 NE16      30.25F
WEST BEND      CLOUDY    66  63  88 NE10      30.23F
JUNEAU         CLOUDY    58  55  91 N9        30.27R
$$

LSZ147-162-301100-
LAKE SUPERIOR

STATION/POSITION TIME  TEMP    WIND        PRES    WAVE
                       AIR SEA DIR/SP/G            HT/PER
                 (UTC) (F)     (DEG/KT/KT) (MB)    (FT/S)
W MID LAKE BUOY  0950   56 56   80/  6/  8 1031.2R   1/ 5
DEVILS ISLAND    1000   53      30/  9/ 10 1031.8S
SAXON HARBOR     0900   52     150/  3/  4 1030.5S
$$

LMZ867-665-643>646-301100-
LAKE MICHIGAN

STATION/POSITION TIME  TEMP    WIND        PRES    WAVE
                       AIR SEA DIR/SP/G            HT/PER
                 (UTC) (F)     (DEG/KT/KT) (MB)    (FT/S)
CHAMBERS ISLAND  0900   62     360/ 16/ 18 1026.4S
S GREEN BAY BUOY 1000   59 62   30/ 16/ 17 1025.6S
N MID LAKE BUOY  0950   63 65   60/ 19/ 21 1026.0F   4/ 5
NORTHPORT PIER   0900   64      50/ 13/ 16 1026.8S
SISTER BAY       0908   60      20/  7/  9   N/A
KEWAUNEE LAKESHO 0900   62      50/ 10/ 14 1025.1S
SHEBOYGAN LAKESH 1000   61      30/ 15/ 16 1023.9F
PORT WASHINGTON  0940   60      50/ 12/ 15 1024.4F
ATWATER BUOY     1000   58 53   40/ 12/ 16 1022.9F
MILWAUKEE LAKESH 0910   58      30/ 13/ 14   N/A
S MID LAKE BUOY  0950   63 68   60/ 17/ 23 1021.1F   5/ 6
KENOSHA   LAKESH 1000   62      40/ 17/ 19 1021.7F
$$

TC  - TEMPERATURE IN CELSIUS
VSB - VISIBILITY IN STATUTE MILES
WCI - WIND CHILL INDEX
HX  - HEAT INDEX





USA.gov is the U.S. government's official web portal to all federal, state and local government web resources and services.